Terminal Aerodrome Forecast
Issued by NWS

Home | Current Version | Previous Version | Text Only | Print | Product List | Glossary On
Versions: 1 2 3 4 5 6 7 8 9 10 11 12
000
FTUS46 KSGX 220520
TAFPSP
TAF
KPSP 220520Z 2206/2306 33012G20KT P6SM FEW090
     FM221200 VRB06KT P6SM SKC
     FM222000 32012G20KT P6SM FEW090=

USA.gov is the U.S. government's official web portal to all federal, state and local government web resources and services.